Fort Smith, AR

12:47 AM CDT on July 22, 2017 (GMT -0500)
Fort Smith Regional

Weather History for KFSM - January, 2013

Change the Weather History Date:

Thursday, January 31, 2013

  Actual Average Record
Temperature  
Mean Temperature 44 °F 41 °F  
Max Temperature 61 °F 52 °F 77 °F (1989)
Min Temperature 26 °F 30 °F 0 °F (1966)
Degree Days  
Heating Degree Days 21 24  
Month to date heating degree days 667 769  
Since 1 July heating degree days 1759 2068  
Moisture  
Dew Point 23 °F    
Average Humidity 55    
Maximum Humidity 85    
Minimum Humidity 25    
Precipitation  
Precipitation 0.00 in 0.09 in 2.76 in (1982)
Month to date precipitation 3.97 2.71  
Year to date precipitation 3.97 2.71  
Sea Level Pressure  
Sea Level Pressure 30.19 in    
Wind  
Wind Speed 6 mph (NW)    
Max Wind Speed 29 mph    
Max Gust Speed 33 mph    
Visibility 10 miles    
Events      
T = Trace of Precipitation, MM = Missing Value Source: NWS Daily Summary

Daily Weather History Graph

Daily Weather History Graph

Search for Another Location

Airport or City:

Trip Planner

Search our weather history database for the weather conditions in past years. The results will help you decide how hot, cold, wet, or windy it might be!

Date:

Astronomy

Jan. 31, 2013 Rise Set
Actual Time 7:17 AM CST 5:44 PM CST
Civil Twilight 6:50 AM CST 6:11 PM CST
Nautical Twilight 6:20 AM CST 6:42 PM CST
Astronomical Twilight 5:50 AM CST 7:12 PM CST
Moon 10:34 PM CST (1/31) 9:29 AM CST (1/31)
Length of Visible Light 11h 21m
Length of Day
10h 27m
Waning Gibbous, 79% of the Moon is Illuminated
Jan 31
Waning Gibbous
Feb 3
Last Quarter
Feb 10
New
Feb 17
First Quarter
Feb 25
Full

Hourly Weather History & Observations

Time (CST) Temp. Windchill Dew Point Humidity Pressure Visibility Wind Dir Wind Speed Gust Speed Precip Events Conditions
12:53 AM 32.0 °F 28.7 °F 25.0 °F 75% 30.09 in 10.0 mi WNW 3.5 mph - N/A   Clear
1:53 AM 30.0 °F - 25.0 °F 82% 30.09 in 10.0 mi Calm Calm - N/A   Clear
2:53 AM 30.0 °F - 25.0 °F 82% 30.07 in 10.0 mi Calm Calm - N/A   Clear
3:53 AM 28.9 °F - 25.0 °F 85% 30.09 in 9.0 mi Calm Calm - N/A   Clear
4:53 AM 28.0 °F - 24.1 °F 85% 30.08 in 10.0 mi Calm Calm - N/A   Clear
5:53 AM 28.0 °F - 23.0 °F 81% 30.10 in 10.0 mi Calm Calm - N/A   Clear
6:53 AM 27.0 °F - 21.9 °F 81% 30.11 in 10.0 mi Calm Calm - N/A   Clear
7:53 AM 28.9 °F - 25.0 °F 85% 30.14 in 6.0 mi Calm Calm - N/A   Clear
9:53 AM 37.9 °F - 28.0 °F 68% 30.16 in 10.0 mi Calm Calm - N/A   Clear
10:53 AM 45.0 °F 42.6 °F 27.0 °F 49% 30.16 in 10.0 mi West 4.6 mph - N/A   Clear
11:53 AM 50.0 °F - 28.0 °F 43% 30.14 in 10.0 mi Calm Calm - N/A   Clear
12:53 PM 54.0 °F - 28.9 °F 38% 30.12 in 10.0 mi West 6.9 mph - N/A   Clear
1:53 PM 57.9 °F - 28.0 °F 32% 30.09 in 10.0 mi West 9.2 mph - N/A   Clear
2:53 PM 60.1 °F - 27.0 °F 28% 30.08 in 10.0 mi NW 10.4 mph - N/A   Clear
3:53 PM 60.1 °F - 25.0 °F 26% 30.09 in 10.0 mi NNW 19.6 mph 24.2 mph N/A   Clear
4:53 PM 51.1 °F - 28.9 °F 43% 30.15 in 10.0 mi North 20.7 mph 28.8 mph N/A   Clear
5:53 PM 46.0 °F 40.6 °F 28.0 °F 50% 30.22 in 10.0 mi North 11.5 mph - N/A   Clear
6:53 PM 43.0 °F 36.8 °F 26.1 °F 51% 30.31 in 10.0 mi North 11.5 mph 23.0 mph N/A   Scattered Clouds
7:53 PM 39.9 °F 33.9 °F 19.9 °F 45% 30.36 in 10.0 mi NNW 9.2 mph - N/A   Clear
8:53 PM 35.1 °F 26.9 °F 12.0 °F 39% 30.40 in 10.0 mi NW 11.5 mph 19.6 mph N/A   Clear
9:53 PM 32.0 °F 24.8 °F 10.9 °F 42% 30.43 in 10.0 mi NW 8.1 mph - N/A   Clear
10:53 PM 30.9 °F 23.5 °F 12.0 °F 46% 30.44 in 10.0 mi NNW 8.1 mph - N/A   Clear
11:53 PM 30.2 °F 22.6 °F 14.0 °F 51% 30.43 in 10.0 mi North 8.1 mph - N/A   Clear